Tracking 31027 objects as of 19-Jul-2025
HD Live streaming from Space Station
objects crossing your sky now

STARLINK-2031

Track STARLINK-2031 now!
10-day predictions
STARLINK-2031 is classified as:


NORAD ID: 47648
Int'l Code: 2021-012AE
Perigee: 553.6 km
Apogee: 555.2 km
Inclination: 53.1 °
Period: 95.6 minutes
Semi major axis: 6925 km
RCS: Unknown
Launch date: February 16, 2021
Source: United States (US)
Launch site: AIR FORCE EASTERN TEST RANGE (AFETR)
Your satellite tracking list
IRIDIUM 33 DEB
Track 1 satellite(s)




NASA's NSSDC Master Catalog

Two Line Element Set (TLE):
1 47648U 21012AE  25199.76161184  .00000742  00000-0  68704-4 0  9997
2 47648  53.0561  21.7624 0001153  97.1556 262.9564 15.06398946244494
Source of the keplerian elements: AFSPC